Regional Weather Roundup
Issued by NWS

Home | Current Version | Previous Version | Text Only | Print | Product List | Glossary Off
Versions: 1 2 3 4 5 6 7 8 9 10 11 12 13 14 15 16 17 18 19 20 21 22 23 24 25 26 27 28 29 30 31 32 33 34 35 36 37 38 39 40 41 42 43 44 45 46 47 48 49 50

941
ASUS45 KCYS 200510
RWRWY

WYOMING REGIONAL WEATHER ROUNDUP
NATIONAL WEATHER SERVICE CHEYENNE WY
1100 PM MDT TUE SEP 19 2017

NOTE:  "FAIR" INDICATES FEW OR NO CLOUDS BELOW 12,000 FEET
WITH NO SIGNIFICANT WEATHER AND/OR OBSTRUCTIONS TO VISIBILITY.

WYZ001-200600-
YELLOWSTONE NATIONAL PARK

CITY           SKY/WX    TMP DP  RH WIND       PRES   REMARKS
LK YELLOWSTONE   N/A     30  27  88 W9G22     29.87F WCI  22
W YELLOWSTONE  NOT AVBL

$$
WYZ002>013-054>058-071-098>099-200600-
NORTHERN WYOMING

CITY           SKY/WX    TMP DP  RH WIND       PRES   REMARKS
JACKSON        MOCLDY    39  23  52 W17G29    29.92S WCI  30
CODY           FAIR      41  31  67 E6        29.80F
GREYBULL       CLOUDY    47  37  68 VRB5      29.79S
WORLAND        FAIR      40  37  89 NE6       29.80R
SHERIDAN       FAIR      43  35  73 NW10      29.75R
BUFFALO        FAIR      40  35  83 NW5       29.76F
GILLETTE       FAIR      40  37  89 SW8       29.77R WCI  34
HULETT         FAIR      41  37  87 SW10      29.77S
NEWCASTLE      FAIR      37  36  93 N6        29.79F WCI  33

$$
WYZ014>020-022>026-101>103-200600-
CENTRAL WYOMING

CITY           SKY/WX    TMP DP  RH WIND       PRES   REMARKS
BIG PINEY      FAIR      32  25  75 NW12      29.97S WCI  23
PINEDALE       FAIR      30  28  93 W8        29.98S WCI  23
DUBOIS         FAIR      32  27  80 NW7       29.88F WCI  26
LANDER           N/A    N/A N/A N/A MISG      29.86S
RIVERTON       FAIR      41  25  53 W12       29.86S
CASPER         FAIR      39  29  67 SW12      29.86R WCI  32
DOUGLAS        FAIR      44  28  53 W7        29.84R

$$
WYZ021-027>030-104>119-200600-
SOUTHERN WYOMING

CITY           SKY/WX    TMP DP  RH WIND       PRES   REMARKS
EVANSTON       FAIR      38  29  70 N7        30.01R WCI  33
KEMMERER         N/A     32  30  93 W8        30.01R WCI  25
FORT BRIDGER   FAIR      34  32  94 W7        30.03R WCI  27
ROCK SPRINGS   FAIR      35  30  82 W5        30.01R WCI  31
DIXON          CLOUDY    39  36  87 E7        30.05R WCI  34
RAWLINS        FAIR      36  31  82 SW23      29.95S WCI  24
SARATOGA       MOCLDY    36  32  87 CALM      29.99S
LARAMIE        CLOUDY    36  32  85 S14       29.99S WCI  27
CHEYENNE       FAIR      43  32  65 W29G41    29.87R
TORRINGTON     FAIR      53  31  42 W18G28    29.82S
PINE BLUFFS    FAIR      52  27  37 MISG      29.86R

$$




USA.gov is the U.S. government's official web portal to all federal, state and local government web resources and services.